Location: Zagreb
(45.8000°N, 16.0000°E)
Time: 20:37:50
(UTC+01:00)

deb Explorer IX - Pass Details

Date: 07 October 2020
Orbit: 537 x 1106 km, 38.8° (Epoch: 30 October)

Event Time Altitude Azimuth Distance (km) Brightness Sun altitude
Rises 17:09:49 0° 258° (WSW) 3,476 ? 11.7°
Reaches altitude 10° 17:12:42 10° 251° (WSW) 2,436 ? 11.3°
Maximum altitude 17:17:57 39° 185° (S) 1,102 ? 10.4°
Drops below altitude 10° 17:22:28 10° 117° (ESE) 2,085 ? 9.7°
Sets 17:24:46 0° 109° (ESE) 2,919 ? 9.3°
